Joplin, MO

5:28 PM CST on November 12, 2019 (GMT -0600)
Joplin Regional

Weather History for KJLN - September, 2019

Change the Weather History Date:

Wednesday, September 4, 2019

  Actual Average Record
Temperature  
Mean Temperature 79 °F 76 °F  
Max Temperature 91 °F 87 °F 102 °F (1954)
Min Temperature 66 °F 64 °F 41 °F (1974)
Degree Days  
Heating Degree Days 0 0  
Month to date heating degree days 0 0  
Since 1 July heating degree days 0 1  
Cooling Degree Days 14 11  
Month to date cooling degree days 54 45  
Year to date cooling degree days 1305 1472  
Growing Degree Days 29 (Base 50)    
Moisture  
Dew Point 72 °F    
Average Humidity 83    
Maximum Humidity 100    
Minimum Humidity 59    
Precipitation  
Precipitation 0.00 in 0.15 in 5.23 in (1926)
Month to date precipitation 0.00 0.63  
Year to date precipitation 48.89 31.60  
Sea Level Pressure  
Sea Level Pressure 30.08 in    
Wind  
Wind Speed 2 mph ()    
Max Wind Speed 9 mph    
Max Gust Speed 13 mph    
Visibility 8.2 miles    
Events Fog    
T = Trace of Precipitation, MM = Missing Value Source: Averaged Metar Reports

Daily Weather History Graph

Daily Weather History Graph

Search for Another Location

Airport or City:

Astronomy

Sep. 04, 2019 Rise Set
Actual Time 6:50 AM CDT 7:42 PM CDT
Civil Twilight 6:24 AM CDT 8:08 PM CDT
Nautical Twilight 5:53 AM CDT 8:40 PM CDT
Astronomical Twilight 5:20 AM CDT 9:12 PM CDT
Moon 12:45 PM CDT (9/4) 11:26 PM CDT (9/4)
Length of Visible Light 13h 44m
Length of Day
12h 51m
Waxing Crescent, 35% of the Moon is Illuminated
Sep 4
Waxing Crescent
Sep 5
First Quarter
Sep 13
Full
Sep 21
Last Quarter
Sep 28
New

Hourly Weather History & Observations

Time (CDT) Temp. Heat Index Dew Point Humidity Pressure Visibility Wind Dir Wind Speed Gust Speed Precip Events Conditions
12:53 AM 73.0 °F - 70.0 °F 90% 30.02 in 9.0 mi Calm Calm - N/A   Clear
1:53 AM 72.0 °F - 70.0 °F 93% 30.02 in 8.0 mi South 4.6 mph - N/A   Clear
2:53 AM 72.0 °F - 70.0 °F 93% 30.03 in 8.0 mi Calm Calm - N/A   Clear
3:53 AM 69.1 °F - 68.0 °F 96% 30.05 in 2.0 mi Calm Calm - N/A   Clear
4:05 AM 69.1 °F - 69.1 °F 100% 30.08 in 3.0 mi Calm Calm - N/A   Clear
4:53 AM 69.1 °F - 68.0 °F 96% 30.05 in 3.0 mi Calm Calm - N/A   Clear
5:53 AM 69.1 °F - 68.0 °F 96% 30.06 in 7.0 mi Calm Calm - N/A   Clear
6:16 AM 66.9 °F - 66.0 °F 97% 30.11 in 8.0 mi North 5.8 mph - N/A Fog Patches of Fog
6:53 AM 66.9 °F - 66.9 °F 100% 30.09 in 7.0 mi North 5.8 mph - N/A Fog Patches of Fog
7:53 AM 70.0 °F - 69.1 °F 97% 30.10 in 7.0 mi South 5.8 mph - N/A   Clear
8:53 AM 75.0 °F - 72.0 °F 90% 30.11 in 8.0 mi Calm Calm - N/A   Scattered Clouds
9:53 AM 80.1 °F 84.2 °F 73.0 °F 79% 30.11 in 9.0 mi Calm Calm - N/A   Clear
10:53 AM 82.9 °F 89.4 °F 73.9 °F 74% 30.11 in 10.0 mi Variable 3.5 mph - N/A   Clear
11:53 AM 86.0 °F 95.1 °F 75.0 °F 70% 30.11 in 10.0 mi WNW 4.6 mph - N/A   Clear
12:53 PM 87.1 °F 95.4 °F 73.9 °F 65% 30.10 in 7.0 mi NW 5.8 mph - N/A   Clear
1:53 PM 89.1 °F 98.0 °F 73.9 °F 61% 30.10 in 10.0 mi Variable 6.9 mph - N/A   Clear
2:53 PM 90.0 °F 99.0 °F 73.9 °F 59% 30.08 in 10.0 mi Calm Calm - N/A   Clear
3:53 PM 90.0 °F 99.0 °F 73.9 °F 59% 30.07 in 10.0 mi Variable 4.6 mph - N/A   Scattered Clouds
4:53 PM 90.0 °F 100.2 °F 75.0 °F 61% 30.05 in 10.0 mi Variable 4.6 mph - N/A   Clear
5:53 PM 87.1 °F 97.3 °F 75.9 °F 69% 30.05 in 10.0 mi Variable 4.6 mph - N/A   Clear
6:53 PM 86.0 °F 96.0 °F 75.9 °F 72% 30.05 in 10.0 mi Variable 3.5 mph - N/A   Clear
7:53 PM 81.0 °F 86.7 °F 75.0 °F 82% 30.06 in 10.0 mi Variable 3.5 mph - N/A   Clear
8:53 PM 79.0 °F - 75.0 °F 88% 30.07 in 6.0 mi NE 4.6 mph - N/A   Clear
9:53 PM 78.1 °F - 73.9 °F 87% 30.09 in 10.0 mi ENE 3.5 mph - N/A   Clear
10:53 PM 75.9 °F - 72.0 °F 87% 30.09 in 10.0 mi ENE 3.5 mph - N/A   Clear
11:53 PM 75.0 °F - 72.0 °F 90% 30.09 in 10.0 mi ENE 3.5 mph - N/A   Clear